Time,TemperatureF,DewpointF,PressureIn,WindDirection,WindDirectionDegrees,WindSpeedMPH,WindSpeedGustMPH,Humidity,HourlyPrecipIn,Conditions,Clouds,dailyrainin,SolarRadiationWatts/m^2,SoftwareType,DateUTC
2013-06-02 00:29:00,74.1,68.9,29.87,SSE,167,2.0,7.0,84,0.00,CLR,,0.00,0.0,WeatherDisplay:10.37,2013-06-02 04:29:00,
2013-06-02 01:00:00,73.5,68.0,29.86,South,181,3.0,7.0,83,0.00,CLR,,0.00,0.0,WeatherDisplay:10.37,2013-06-02 05:00:00,
2013-06-02 01:29:00,72.9,68.1,29.86,South,175,0.0,8.0,85,0.00,CLR,,0.00,0.0,WeatherDisplay:10.37,2013-06-02 05:29:00,
2013-06-02 02:00:00,72.3,67.9,29.85,SSE,162,1.0,7.0,86,0.00,CLR,,0.00,0.0,WeatherDisplay:10.37,2013-06-02 06:00:00,
2013-06-02 02:29:00,72.0,67.2,29.84,SSE,164,1.0,10.0,85,0.00,CLR,,0.00,0.0,WeatherDisplay:10.37,2013-06-02 06:29:00,
2013-06-02 03:00:00,71.6,67.5,29.84,SSE,159,0.0,7.0,87,0.00,CLR,,0.00,0.0,WeatherDisplay:10.37,2013-06-02 07:00:00,
2013-06-02 03:29:00,71.2,67.1,29.84,South,169,1.0,8.0,87,0.00,CLR,,0.00,0.0,WeatherDisplay:10.37,2013-06-02 07:29:00,
2013-06-02 04:00:00,70.8,67.1,29.84,SSE,162,5.0,8.0,88,0.00,CLR,,0.00,0.0,WeatherDisplay:10.37,2013-06-02 08:00:00,
2013-06-02 04:29:00,70.4,67.0,29.83,SSE,164,2.0,8.0,89,0.00,CLR,,0.00,0.0,WeatherDisplay:10.37,2013-06-02 08:29:00,
2013-06-02 05:00:00,69.9,66.8,29.84,South,172,3.0,9.0,90,0.00,OVC,,0.00,0.0,WeatherDisplay:10.37,2013-06-02 09:00:00,
2013-06-02 05:29:00,69.6,66.8,29.85,South,179,2.0,10.0,91,0.00,BKN,,0.00,12.0,WeatherDisplay:10.37,2013-06-02 09:29:00,
2013-06-02 06:00:00,69.4,67.0,29.85,South,173,1.0,8.0,92,0.00,SCT,,0.00,56.0,WeatherDisplay:10.37,2013-06-02 10:00:00,
2013-06-02 06:29:00,70.2,67.5,29.85,SSE,166,2.0,8.0,91,0.00,SCT,,0.00,134.0,WeatherDisplay:10.37,2013-06-02 10:29:00,
2013-06-02 07:00:00,71.8,68.4,29.85,South,171,2.0,9.0,89,0.00,FEW,,0.00,209.0,WeatherDisplay:10.37,2013-06-02 11:00:00,
2013-06-02 07:29:00,73.7,69.6,29.85,South,169,2.0,10.0,87,0.00,FEW,,0.00,295.0,WeatherDisplay:10.37,2013-06-02 11:29:00,
2013-06-02 08:00:00,75.7,70.8,29.84,SSE,157,2.0,9.0,85,0.00,FEW,,0.00,380.0,WeatherDisplay:10.37,2013-06-02 12:00:00,
2013-06-02 08:29:00,77.2,70.9,29.84,South,169,3.0,12.0,81,0.00,FEW,,0.00,466.0,WeatherDisplay:10.37,2013-06-02 12:29:00,
2013-06-02 09:00:00,78.9,72.2,29.83,South,169,5.0,12.0,80,0.00,FEW,,0.00,550.0,WeatherDisplay:10.37,2013-06-02 13:00:00,
2013-06-02 09:29:00,81.1,73.2,29.82,SSE,163,3.0,10.0,77,0.00,FEW,,0.00,628.0,WeatherDisplay:10.37,2013-06-02 13:29:00,
2013-06-02 10:00:00,83.2,73.7,29.82,SSE,159,1.0,13.0,73,0.00,FEW,,0.00,696.0,WeatherDisplay:10.37,2013-06-02 14:00:00,
2013-06-02 10:29:00,84.7,73.8,29.81,SSE,163,6.0,14.0,70,0.00,FEW,,0.00,759.0,WeatherDisplay:10.37,2013-06-02 14:29:00,
2013-06-02 11:00:00,85.9,73.3,29.81,SSE,167,6.0,14.0,66,0.00,FEW,,0.00,809.0,WeatherDisplay:10.37,2013-06-02 15:00:00,
2013-06-02 11:29:00,87.1,73.4,29.80,SSE,168,7.0,17.0,64,0.00,FEW,,0.00,837.0,WeatherDisplay:10.37,2013-06-02 15:29:00,
2013-06-02 12:00:00,87.6,73.4,29.79,South,174,5.0,17.0,63,0.00,FEW,,0.00,868.0,WeatherDisplay:10.37,2013-06-02 16:00:00,
2013-06-02 12:29:00,88.1,72.0,29.79,South,170,2.0,16.0,59,0.00,FEW,,0.00,884.0,WeatherDisplay:10.37,2013-06-02 16:29:00,
2013-06-02 13:00:00,88.8,72.1,29.78,South,170,5.0,17.0,58,0.00,FEW,,0.00,896.0,WeatherDisplay:10.37,2013-06-02 17:00:00,
2013-06-02 13:29:00,89.8,69.8,29.77,South,172,6.0,22.0,52,0.00,FEW,,0.00,884.0,WeatherDisplay:10.37,2013-06-02 17:29:00,
2013-06-02 14:00:00,90.8,70.7,29.76,South,189,7.0,21.0,52,0.00,FEW,,0.00,847.0,WeatherDisplay:10.37,2013-06-02 18:00:00,
2013-06-02 14:29:00,90.4,69.2,29.74,South,179,9.0,20.0,50,0.00,FEW,,0.00,816.0,WeatherDisplay:10.37,2013-06-02 18:29:00,
2013-06-02 15:00:00,89.8,69.8,29.74,South,172,8.0,22.0,52,0.00,FEW,,0.00,756.0,WeatherDisplay:10.37,2013-06-02 19:00:00,
2013-06-02 15:29:00,88.8,70.0,29.73,SSE,164,10.0,22.0,54,0.00,FEW,,0.00,715.0,WeatherDisplay:10.37,2013-06-02 19:29:00,
2013-06-02 16:00:00,86.8,68.7,29.73,South,170,3.0,24.0,55,0.00,FEW,,0.00,638.0,WeatherDisplay:10.37,2013-06-02 20:00:00,
2013-06-02 16:29:00,86.4,68.3,29.73,South,177,7.0,25.0,55,0.00,FEW,,0.00,564.0,WeatherDisplay:10.37,2013-06-02 20:29:00,
2013-06-02 16:59:00,85.4,68.9,29.71,South,171,6.0,28.0,58,0.00,FEW,,0.00,457.0,WeatherDisplay:10.37,2013-06-02 20:59:00,
2013-06-02 17:29:00,84.3,69.4,29.72,SSW,192,7.0,22.0,61,0.00,BKN,,0.00,53.0,WeatherDisplay:10.37,2013-06-02 21:29:00,
2013-06-02 18:00:00,82.7,69.8,29.72,South,190,6.0,21.0,65,0.00,BKN,,0.00,56.0,WeatherDisplay:10.37,2013-06-02 22:00:00,
2013-06-02 18:29:00,81.4,70.7,29.75,South,169,1.0,15.0,70,0.00,BKN,,0.00,81.0,WeatherDisplay:10.37,2013-06-02 22:29:00,
2013-06-02 18:59:00,80.8,70.9,29.76,South,180,2.0,16.0,72,0.00,BKN,,0.00,63.0,WeatherDisplay:10.37,2013-06-02 22:59:00,
2013-06-02 19:29:00,79.4,70.0,29.76,South,183,9.0,18.0,73,0.00,BKN,,0.00,21.0,WeatherDisplay:10.37,2013-06-02 23:29:00,
2013-06-02 20:00:00,78.2,70.0,29.77,South,173,3.0,13.0,76,0.00,OVC,,0.00,0.0,WeatherDisplay:10.37,2013-06-03 00:00:00,
2013-06-02 20:29:00,76.9,69.5,29.77,South,182,2.0,8.0,78,0.00,OVC,,0.00,0.0,WeatherDisplay:10.37,2013-06-03 00:29:00,
2013-06-02 21:00:00,76.1,69.1,29.78,SSE,167,1.0,9.0,79,0.00,CLR,,0.00,0.0,WeatherDisplay:10.37,2013-06-03 01:00:00,
2013-06-02 21:29:00,75.3,68.3,29.79,SSE,164,3.0,12.0,79,0.00,CLR,,0.00,0.0,WeatherDisplay:10.37,2013-06-03 01:29:00,
2013-06-02 21:59:00,74.2,67.7,29.79,SSW,210,1.0,10.0,80,0.00,CLR,,0.00,0.0,WeatherDisplay:10.37,2013-06-03 01:59:00,
2013-06-02 22:29:00,73.8,67.2,29.79,South,174,1.0,7.0,80,0.00,CLR,,0.00,0.0,WeatherDisplay:10.37,2013-06-03 02:29:00,
2013-06-02 23:00:00,72.5,66.7,29.79,South,173,0.0,9.0,82,0.00,CLR,,0.00,0.0,WeatherDisplay:10.37,2013-06-03 03:00:00,
2013-06-02 23:29:00,71.3,66.2,29.80,South,186,1.0,5.0,84,0.00,CLR,,0.00,0.0,WeatherDisplay:10.37,2013-06-03 03:29:00,